This demonstration page uses our WeatherBlox Daily Observations layout. Learn more.

Left ArrowRight Arrow

39.92423, -83.80882

Hourly Observations for May 25, 2022

Temp ( °F °C ) Dew Point ( °F °C ) Humidity (%) Winds ( mph kmh ) Pressure ( in mb ) Visibility ( mi km ) Precip ( " mm )
12:56 am 00:56 Clear 61 16 N/A N/A ESE 5 7 30.15 1021 10 16 0.00 0.00
1:56 am 01:56 Clear N/A N/A N/A E 6 9 N/A 9 14 0.00 0.00
2:56 am 02:56 Clear N/A N/A N/A ESE 7 11 N/A 9 14 0.00 0.00
3:56 am 03:56 Clear 63 17 N/A N/A ESE 9 15 30.10 1019 10 16 0.00 0.00
4:56 am 04:56 Mostly Cloudy 63 17 N/A N/A ESE 13 20 30.09 1019 10 16 0.00 0.00
5:56 am 05:56 Cloudy 63 17 N/A N/A SE 10 17 30.10 1019 10 16 0.00 0.00
6:56 am 06:56 Partly Cloudy 63 17 N/A N/A SE 14 22 30.10 1019 10 16 0.00 0.00
7:56 am 07:56 Cloudy 64 18 N/A N/A ESE 12 19 30.11 1020 10 16 0.00 0.00
8:56 am 08:56 Cloudy 64 18 N/A N/A SE 9 15 30.11 1020 10 16 0.00 0.00
9:56 am 09:56 Mostly Cloudy with Light Rain 68 20 67 19.4 96 96 SE 12 19 30.11 1020 10 16 0.00 0.00
10:56 am 10:56 Cloudy with Light Rain 68 20 68 20 100 100 SE 10 17 30.11 1020 10 16 0.00 0.00
11:56 am 11:56 Cloudy 70 21.1 68 20 93 93 SE 12 19 30.09 1019 10 16 0.00 0.00
12:56 pm 12:56 Mostly Cloudy 74 23.3 66 18.9 76 76 SE 12 19 30.07 1018 10 16 0.00 0.00
1:56 pm 13:56 Sunny 78 25.6 67 19.4 69 69 ESE 15 24 30.02 1017 10 16 0.00 0.00
2:56 pm 14:56 Mostly Cloudy 79 26.1 67 19.4 67 67 SE 14 22 30.00 1016 10 16 0.00 0.00
3:56 pm 15:56 Cloudy 78 25.6 66 18.9 67 67 SSE 18 30 30.02 1017 10 16 0.00 0.00
4:56 pm 16:56 Partly Cloudy 80 26.7 67 19.4 64 64 SE 17 28 29.99 1016 10 16 0.00 0.00
5:56 pm 17:56 Partly Cloudy 79 26.1 66 18.9 65 65 SSE 15 24 29.97 1015 10 16 0.00 0.00
6:56 pm 18:56 Sunny 79 26.1 67 19.4 67 67 SE 17 28 29.95 1014 10 16 0.00 0.00
7:56 pm 19:56 Mostly Sunny 77 25 68 20 74 74 SE 15 24 29.95 1014 10 16 0.00 0.00
8:56 pm 20:56 Mostly Clear 75 23.9 71 21.7 88 88 SE 12 19 29.94 1014 10 16 0.00 0.00
9:35 pm 21:35 Mostly Cloudy with Nearby Thunderstorms 73 23 72 22 94 94 SE 14 22 29.91 1013 10 16 0.00 0.00
9:47 pm 21:47 Mostly Cloudy with Nearby Thunderstorms 73 23 73 23 100 100 SE 16 26 29.91 1013 10 16 0.00 0.00
9:56 pm 21:56 Cloudy with Thunderstorms 72 22.2 72 22.2 100 100 SSE 14 22 29.94 1014 7 11 0.00 0.00
10:41 pm 22:41 Cloudy 68 20 N/A N/A S 7 11 29.95 1014 10 16 0.00 0.00
10:56 pm 22:56 Cloudy 70 21 N/A N/A SSE 13 20 29.96 1015 10 16 0.00 0.00
11:54 pm 23:54 Cloudy N/A N/A N/A S 3 6 N/A 10 16 0.00 0.00
11:56 pm 23:56 Cloudy N/A N/A N/A S 3 6 N/A 10 16 0.00 0.00

Powered by AerisWeather